Location: Elizabeth
(40.6640°N, 74.2107°W)
Time: 08:42:28
(UTC+00:00)

Daily predictions for brighter satellites

Satellite Brightness Start Highest point End
(mag) Time Altitude Azimuth Time Altitude Azimuth Time Altitude Azimuth
ALOS 3.5 21:54:58 10° S 21:59:28 47° W 22:03:58 10° NNW
NOSS 7 (D) 4.2 21:57:12 10° NNW 22:00:15 60° NE 22:03:43 10° SE
IRS-1C Rocket 4.2 21:56:37 10° SSE 22:01:45 56° ENE 22:06:54 10° N
SL-16 R/B 2.8 21:58:33 10° S 22:03:41 37° ESE 22:08:52 10° NE
Cosmos 1500 3.2 22:01:59 10° N 22:05:45 88° W 22:09:28 10° S
ISS -2.8 22:03:15 10° WNW 22:06:32 51° SW 22:09:47 10° SE
Aureole 1 Rocket 2.3 22:07:17 10° S 22:10:10 54° ESE 22:13:17 10° NNE
STARLINK-52 3.5 22:07:18 10° WSW 22:10:45 60° NW 22:14:14 10° NE
CORIOLIS 4.3 22:06:14 10° SSE 22:11:30 53° ENE 22:16:47 10° N
Shenzhou-11 Module 1.6 22:09:05 10° WNW 22:11:50 90° E 22:14:34 10° ESE
Cosmos 2237 Rocket 2.6 22:06:47 10° SSW 22:12:28 69° WNW 22:18:09 10° NNE
Cosmos 2026 Rocket 4.4 22:10:44 10° SSE 22:16:18 40° E 22:21:53 10° NNE
Cosmos 2333 Rocket 4.1 22:12:07 10° WSW 22:16:51 26° NW 22:21:38 10° N
Cosmos 292 Rocket 3.9 22:12:15 10° N 22:17:03 56° ENE 22:21:48 10° SSE
STARLINK-60 4.5 22:14:21 10° W 22:17:24 30° NNW 22:20:26 10° NE
Cosmos 1862 Rocket 4.1 22:13:12 10° SSW 22:17:29 61° W 22:21:51 10° N
STARLINK-29 3.9 22:15:32 10° WSW 22:18:56 46° NW 22:22:10 11° NE
Cosmos 1900 4.4 22:15:13 10° NNW 22:20:08 86° WSW 22:25:00 10° SSE
Cosmos 1703 Rocket 3.8 22:16:41 10° SSE 22:20:59 49° E 22:25:20 10° NNE
Cosmos 2219 Rocket 4.2 22:17:43 10° WSW 22:22:09 24° NW 22:26:39 10° N
Cosmos 1975 4.4 22:21:23 10° NNE 22:23:52 16° ENE 22:26:20 10° ESE
STARLINK-43 4.0 22:20:40 10° SSW 22:24:10 41° SE 22:26:52 16° ENE
H-2A R/B 2.6 22:24:29 10° SSE 22:28:10 85° ENE 22:31:52 10° N
Cosmos 1943 Rocket 3.5 22:26:35 10° N 22:30:28 19° NE 22:32:47 15° E
Cosmos 1441 Rocket 3.4 22:27:17 10° N 22:30:57 44° ENE 22:34:32 10° SSE
Cosmos 1190 Rocket 4.3 22:26:56 10° S 22:31:52 47° ESE 22:36:50 10° NNE
Okean O Rocket 4.0 22:28:59 10° SSW 22:32:38 26° W 22:36:19 10° NW
Lacrosse 5 3.5 22:33:54 10° SSE 22:37:14 18° ESE 22:38:56 15° E
Cosmos 2242 Rocket 4.4 22:36:06 10° SSW 22:40:35 57° W 22:45:07 10° N
CSL-04 Rocket 4.4 22:36:43 10° SE 22:41:10 29° ENE 22:45:40 10° N
BREEZE-M R/B 4.1 22:36:57 10° WNW 22:41:16 25° N 22:42:49 18° NE
Genesis I 3.0 22:40:11 10° NNW 22:44:04 69° NE 22:47:51 10° SE
Cosmos 614 Rocket 3.8 22:41:12 10° SSW 22:46:16 78° ESE 22:51:22 10° NNE
Cosmos 1666 3.1 22:46:07 10° NNW 22:49:50 63° W 22:53:30 10° S
Cosmos 1627 Rocket 4.4 22:43:50 10° S 22:49:55 82° E 22:56:05 10° N
Okean-O 2.6 22:50:18 10° SSE 22:54:43 87° WSW 22:59:11 10° NNW
Cosmos 1908 Rocket 4.2 22:51:14 10° NNW 22:55:33 58° W 22:59:48 10° S
Cosmos 2297 3.6 22:51:01 10° NNW 22:56:44 78° ENE 23:02:23 10° SSE
Okean 1-7 3.2 22:54:18 10° SSW 22:58:37 74° W 23:03:01 10° N
CSL-04 Debris 4.4 22:55:18 10° SE 23:00:25 44° ENE 23:05:33 10° N
Cosmos 1655 Rocket 4.3 22:55:19 10° SSE 23:01:14 44° E 23:07:08 10° NNE
COSMO-SKYMED 1 2.4 22:57:45 11° NNE 23:01:58 74° ESE 23:06:17 10° S
USA 215 4.3 22:58:19 13° NNE 23:03:23 36° NNW 23:09:12 10° W
YAOGAN 1 2.8 23:00:04 10° SE 23:04:09 42° ENE 23:08:14 10° N
STARLINK-48 4.0 23:03:59 10° SSW 23:07:38 40° SE 23:08:10 38° ESE
Envisat 3.2 23:02:47 10° S 23:07:50 74° WSW 23:12:56 10° NNW
Cosmos 1140 Rocket 3.3 23:03:29 10° SSW 23:08:36 81° ESE 23:12:24 19° NNE
YAOGAN 6 2.4 23:07:44 10° SSE 23:11:15 89° WSW 23:14:52 10° NNW
OAO 2 Rocket 4.5 23:09:24 10° WSW 23:13:58 36° SSW 23:17:06 18° SE
Lacrosse 5 rocket 3.9 23:16:51 10° NNW 23:17:01 10° NNW 23:17:11 10° NNW
Cosmos 407 Rocket 4.1 23:12:58 10° SSW 23:18:03 57° WNW 23:22:55 12° N
Cosmos 1023 Rocket 4.5 23:13:12 10° SSW 23:18:17 80° WNW 23:21:58 19° NNE
OAO 3 Rocket 4.3 23:15:50 10° WSW 23:20:08 36° S 23:22:22 23° SE
Meteor 2-13 Rocket 4.3 23:15:07 10° S 23:21:04 62° E 23:26:37 12° NNE
Cosmos 1743 3.1 23:18:26 10° NNW 23:22:16 64° W 23:26:06 10° S
Meteor 1-18 Rocket 4.4 23:18:10 10° SSW 23:23:52 74° W 23:29:30 10° N
SL-4 R/B 3.9 23:21:35 10° NW 23:23:42 18° N 23:23:42 18° N
Meteor 2-9 Rocket 4.2 23:18:43 10° N 23:24:34 66° ENE 23:30:16 10° SSE
Okean 1 4.1 23:21:08 10° SSW 23:25:00 50° W 23:28:21 13° N
NOAA 11 4.2 23:20:08 10° SSE 23:25:26 56° ENE 23:30:48 10° N
BREEZE-M DEB (TANK) 2.3 23:24:44 10° WNW 23:27:34 52° W 23:27:34 52° W
Cosmos 921 Rocket 4.1 23:25:25 10° NNW 23:29:31 44° WSW 23:33:40 10° S
Cosmos 1943 3.6 23:25:03 10° S 23:29:53 39° ESE 23:29:53 39° ESE
CZ-4 R/B 1.6 23:30:27 10° S 23:34:19 63° W 23:38:09 10° NNW
Abrixas rocket 3.5 23:31:22 10° WSW 23:33:20 37° WSW 23:33:20 37° WSW
USA 267 3.8 23:29:51 10° SSE 23:36:16 58° SW 23:42:43 10° NW
Okean 3 3.3 23:34:12 10° S 23:38:23 86° W 23:38:33 81° NNW
S3M 3.8 23:35:12 10° N 23:41:26 82° E 23:47:33 10° S
NOSS 3-1 (C) 4.3 23:35:09 10° NNW 23:42:19 44° NE 23:43:15 43° ENE
CZ-4C R/B 2.2 23:39:40 10° SSW 23:43:47 51° SE 23:43:47 51° SE
Cosmos 2266 Rocket 3.9 23:39:08 10° S 23:45:28 68° E 23:48:00 38° NNE
Cosmos 2369 Rocket 2.4 23:40:10 10° NNW 23:44:46 50° NNE 23:44:46 50° NNE
SL-16 R/B 3.7 23:42:44 10° WSW 23:47:48 32° WNW 23:52:08 13° N
USA 229 DEB 4.0 23:45:12 10° NNW 23:52:13 49° NE 23:52:13 49° NE
USA 229 4.0 23:45:18 10° NNW 23:52:15 48° NE 23:52:15 48° NE
Cosmos 1867 3.7 23:47:22 10° NW 23:52:49 71° WSW 23:55:14 33° SSE
Cosmos 1553 Rocket 4.5 23:46:48 10° NNW 23:53:06 62° W 23:59:23 10° S
